Location: Biberach+an+der+Riss
(48.0937°N, 9.7888°E)
Time: 14:51:08
(UTC+01:00)

Tiangong 1 - Visible Passes

Search period start: 18 January 2018 00:00
Search period end: 28 January 2018 00:00
Orbit: 263 x 288 km, 42.8° (Epoch: 18 January)

Date Brightness Start Highest point End Pass type
(mag) Time Alt. Az. Time Alt. Az. Time Alt. Az.
18 Jan 2.5 17:58:24 10° SW 18:00:24 21° S 18:02:21 10° ESE visible
19 Jan 2.4 17:58:00 10° SW 18:00:04 23° S 18:02:07 10° ESE visible
20 Jan 2.5 17:57:33 10° WSW 17:59:37 23° S 18:01:40 10° SE visible
21 Jan 2.7 17:57:02 10° WSW 17:59:01 21° S 18:00:59 10° SE visible
22 Jan 3.1 17:56:29 10° WSW 17:58:17 18° SSW 18:00:04 10° SSE visible
23 Jan 3.4 17:55:57 10° SW 17:57:24 14° SSW 17:58:49 10° SSE visible
24 Jan 3.8 17:55:51 10° SW 17:56:20 10° SSW 17:56:49 10° SSW visible
